Regional Weather Roundup
Issued by NWS

Home | Current Version | Previous Version | Graphics & Text | Print | Product List | Glossary On
Versions: 1 2 3 4 5 6 7 8 9 10 11 12 13 14 15 16 17 18 19 20 21 22 23 24 25 26 27 28 29 30 31 32 33 34 35 36 37 38 39 40 41 42 43 44 45 46 47 48 49 50
944
ASUS43 KMKX 262111
RWRWI

WISCONSIN REGIONAL WEATHER ROUNDUP
NATIONAL WEATHER SERVICE MILWAUKEE/SULLIVAN WI
400 PM CDT MON JUN 26 2017

NOTE: "FAIR" INDICATES FEW OR NO CLOUDS BELOW 12,000 FEET WITH NO
SIGNIFICANT WEATHER AND/OR OBSTRUCTIONS TO VISIBILITY.

WIZ001-002-006>008-014>016-023>028-262200-
NORTHWEST WISCONSIN

CITY           SKY/WX    TMP DP  RH WIND       PRES   REMARKS
SUPERIOR ARPT  NOT AVBL
ASHLAND        PTSUNNY   67  46  47 NW10G21   30.06S
HAYWARD        MOSUNNY   63  48  58 VRB5      30.09F
SIREN          PTSUNNY   66  46  47 CALM      30.11S
CUMBERLAND     MOSUNNY   61  45  55 NW5       30.11F
RICE LAKE      LGT RAIN  57  51  80 N5        30.13F
CHETEK         PTSUNNY   62  50  65 NW9       30.12R
LADYSMITH      PTSUNNY   65  45  47 NW8       30.10S
EAU CLAIRE     PTSUNNY   70  43  37 N7        30.09F
MENOMONIE      CLOUDY    66  44  45 W16       30.11S
NEW RICHMOND   RAIN      58  49  70 N16G26    30.15R
OSCEOLA        MOSUNNY   67  49  52 NW12      30.16S
$$

WIZ003>005-009-010-017-018-262200-
NORTH CENTRAL WISCONSIN

CITY           SKY/WX    TMP DP  RH WIND       PRES   REMARKS
MANITOWISH WTR MOSUNNY   63  41  45 N7G16     30.06S
ARBOR VITAE    MOSUNNY   62  44  51 N13G18    30.05F
WOODRUFF       MOSUNNY   62  44  51 N13G18    30.05F
RHINELANDER    CLOUDY    60  45  57 VRB7      30.07F
EAGLE RIVER    MOSUNNY   59  42  52 NW8       30.05F
LAND O LAKES   MOSUNNY   61  42  49 N13       30.07S
PHILLIPS       MOSUNNY   64  44  47 N7G16     30.06F
TOMAHAWK       NOT AVBL
MEDFORD        MOSUNNY   63  43  48 NW14      30.07F
MERRILL        MOSUNNY   62  45  53 N8        30.07F
$$

WIZ029-030-035-036-043>047-262200-
CENTRAL WISCONSIN

CITY           SKY/WX    TMP DP  RH WIND       PRES   REMARKS
WAUSAU         SUNNY     63  42  46 N14G21    30.05F
MOSINEE        MOSUNNY   63  45  51 N14       30.09S
MARSHFIELD     PTSUNNY   64  46  52 N9        30.08F
STEVENS POINT  PTSUNNY   61  43  53 NW13G21   30.07F
WAUPACA        SUNNY     65  47  52 NW12G17   30.05F
WAUTOMA        CLOUDY    61  46  57 NW14G20   30.07F
WISC RAPIDS    MOSUNNY   64  44  48 N14G25    30.09F
CAMP DOUGLAS   PTSUNNY   63  48  59 NW9       30.09F
$$

WIZ011>013-019>022-031-037>040-048>050-262200-
NORTHEAST WISCONSIN

CITY           SKY/WX    TMP DP  RH WIND       PRES   REMARKS
ANTIGO         CLOUDY    56  46  68 N14G20    30.06F
SHAWANO        CLOUDY    59  53  79 NW7       30.04R
OCONTO         CLOUDY    55  51  89 N5        30.01R
STURGEON BAY   LGT RAIN  55  52  89 NW9         N/A
GREEN BAY      HVY RAIN  53  52  96 NW8G20    30.03R FOG
MANITOWOC      CLOUDY    59  48  67 NW14      30.02F
APPLETON       PTSUNNY   61  46  59 NW14G23   30.03S
CLINTONVILLE   CLOUDY    59  46  63 NW16      30.04S
OSHKOSH        PTSUNNY   62  48  60 NW13      30.03F
$$

WIZ032>034-041-042-053>061-262200-
SOUTHWEST WISCONSIN

CITY           SKY/WX    TMP DP  RH WIND       PRES   REMARKS
LA CROSSE      MOSUNNY   73  45  36 W8        30.10F
SPARTA         MOSUNNY   67  45  46 N14       30.10F
VIROQUA        MOSUNNY   65  46  48 NW12G21   30.11F
BOSCOBEL       PTSUNNY   70  43  37 NW9G20    30.11F
PRAIRIE DU CHI PTSUNNY   69  40  34 N9G18     30.11F
PLATTEVILLE    SUNNY     68  41  37 N17G24    30.10F
$$

WIZ056-057-062-063-064-067-068-262200-
SOUTH CENTRAL WISCONSIN

CITY           SKY/WX    TMP DP  RH WIND       PRES   REMARKS
REEDSBURG      CLOUDY    63  47  55 NW14      30.09F
BARABOO/DELLS  CLOUDY    61  44  54 NW9G18    30.09F
LONE ROCK      CLOUDY    65  44  46 W9        30.10F
MINERAL POINT  MOSUNNY   68  43  40 NW9G18    30.10S
MADISON        PTSUNNY   64  46  52 NW15G22   30.07F
MIDDLETON      PTSUNNY   65  46  50 NW16G24   30.09F
WATERTOWN      NOT AVBL
MONROE         PTSUNNY   68  39  34 NW9G30    30.07F
JANESVILLE     PTSUNNY   72  39  30 NW20G28   30.05F
$$

WIZ051-052-058>065-066-070>072-262200-
SOUTHEAST WISCONSIN

CITY           SKY/WX    TMP DP  RH WIND       PRES   REMARKS
MILWAUKEE      PTSUNNY   65  45  48 NW22G30   30.04S
WAUKESHA       PTSUNNY   59  43  55 NW20G30   30.06F
MILWAUKEE/TIMM PTSUNNY   63  39  42 NW22G28   30.05F
RACINE         LGT RAIN  60  48  64 NW10      30.07R
KENOSHA        CLOUDY    68  45  43 NW13G22   30.04F
FOND DU LAC    PTSUNNY   61  45  55 NW14G20   30.04F
SHEBOYGAN      PTSUNNY   60  52  74 NW15      30.03F
WEST BEND      CLOUDY    59  43  55 NW17      30.04F
JUNEAU         CLOUDY    59  45  58 NW13G20   30.07S
$$

LSZ147-162-262200-
LAKE SUPERIOR

STATION/POSITION TIME  TEMP    WIND        PRES    WAVE
                       AIR SEA DIR/SP/G            HT/PER
                 (UTC) (F)     (DEG/KT/KT) (MB)    (FT/S)
W MID LAKE BUOY  2050   47 39  250/ 10/ 16 1017.7R   1/ 4
DEVILS ISLAND    2100   57     260/  9/ 12 1017.6S
SAXON HARBOR     2040   67      60/  3/  4 1017.6F
$$

LMZ867-665-643>646-262200-
LAKE MICHIGAN

STATION/POSITION TIME  TEMP    WIND        PRES    WAVE
                       AIR SEA DIR/SP/G            HT/PER
                 (UTC) (F)     (DEG/KT/KT) (MB)    (FT/S)
CHAMBERS ISLAND  2040   57     300/  6/  8 1015.6S
S GREEN BAY BUOY 2100   56      10/ 12/ 12 1016.2
N MID LAKE BUOY  2050   56 56  340/ 14/ 16 1015.4R   2/ 3
NORTHPORT PIER   2040   58     340/ 17/ 20 1015.2S
KEWAUNEE LAKESHO 2048   59     310/  4/  8 1015.6R
SHEBOYGAN LAKESH 2100   59     280/ 16/ 18 1016.4F
PORT WASHINGTON  2040   64     300/ 13/ 23 1017.6F
ATWATER BUOY     2009   60 56  280/ 19/ 25 1017.2F
MILWAUKEE LAKESH 2050   62     310/ 15/ 20   N/A
S MID LAKE BUOY  2050   58 61  360/ 14/ 17 1017.2F   2/ 4
KENOSHA   LAKESH 2100   65     310/ 17/ 24 1016.9
$$

TC  - TEMPERATURE IN CELSIUS
VSB - VISIBILITY IN STATUTE MILES
WCI - WIND CHILL INDEX
HX  - HEAT INDEX





USA.gov is the U.S. government's official web portal to all federal, state and local government web resources and services.